Regional Weather Roundup
Issued by NWS Charleston, SC

Current Version | Previous Version | Graphics & Text | Print | Product List | Glossary On
Versions: 1 2 3 4 5 6 7 8 9 10 11 12 13 14 15 16 17 18 19 20 21 22 23 24 25 26 27 28 29 30 31 32 33 34 35 36 37 38 39 40 41 42 43 44 45 46 47 48 49 50
000 ASUS42 KCHS 300325 RWRCHS REGIONAL WEATHER ROUNDUP NATIONAL WEATHER SERVICE CHARLESTON SC 1100 PM EDT WED OCT 29 2014 NOTE: "FAIR" INDICATES FEW OR NO CLOUDS BELOW 12,000 FEET WITH NO SIGNIFICANT WEATHER AND/OR OBSTRUCTIONS TO VISIBILITY. NOT ALL STATIONS ARE QUALITY CONTROLLED BY THE NATIONAL WEATHER SERVICE. USE DATA WITH CAUTION...ESPECIALLY DEWPOINT OBSERVATIONS. SCZ027-030-031-034>040-042>050-300400- ...SOUTH CAROLINA... CITY SKY/WX TMP DP RH WIND PRES REMARKS N CHARLESTON PTCLDY 69 65 86 SW3 29.98S WATERFRONT PRK N/A 72 N/A N/A SW3 N/A FORT JOHNSON NOT AVBL JOHNS ISLAND CLEAR 70 70 100 CALM 29.98S PINOPOLIS NOT AVBL MONCKS CORNER FAIR 70 68 94 SW6 29.97S SUMMERVILLE FAIR 66 66 100 CALM 29.98S BEAUFORT MCAS PTCLDY 72 66 81 CALM 29.92S BEAUFORT ARPT FAIR 70 68 94 S3 29.97F HILTON HEAD IS CLEAR 72 70 94 S6 29.99S GEORGETOWN NOT AVBL WALTERBORO PTCLDY 64 N/A N/A CALM 29.98S ORANGEBURG CLOUDY 68 64 87 CALM 29.97S BARNWELL MOCLDY 66 66 100 SW3 29.98S AIKEN CLOUDY 68 63 83 W3 30.02S MANNING CLOUDY 70 64 83 SW3 29.97S KINGSTREE NOT AVBL COLUMBIA CLOUDY 69 61 75 W3 29.97R SUMTER CLOUDY 69 64 83 W6 29.95S FLORENCE CLOUDY 65 63 93 SW3 29.95F MYRTLE BEACH CLOUDY 72 63 73 SW7 29.96S N MYRTLE BEACH MOCLDY 68 64 87 SW3 29.95S $$ GAZ063-065-086>088-099>101-113>116-118-119-134-136>141-150-300400- ...GEORGIA... CITY SKY/WX TMP DP RH WIND PRES REMARKS SAVANNAH ARPT PTCLDY 71 66 84 S6 29.99S HUNTER AAF CLEAR 70 69 98 S5 29.97S FORT STEWART CLEAR 68 64 89 S5 29.98S STATESBORO NOT AVBL SYLVANIA CLOUDY 72 69 92 CALM 29.99S CLAXTON MOCLDY 66 64 94 CALM 29.98F THOMSON CLOUDY 68 62 79 NW9 30.05S AUGUSTA-BUSH MOCLDY 68 63 84 NW7 29.98R AUGUSTA-DANIEL MOCLDY 70 60 70 NW7 29.99S SWAINSBORO FAIR 68 68 100 MISG 30.00S VIDALIA TSTM 68 64 88 NW9 30.00R ALMA CLOUDY 69 60 73 W3 29.99S WAYCROSS DRIZZLE 70 65 82 W3 30.00S JESUP MOCLDY 70 68 94 SW3 29.99S BRUNSWICK CLEAR 68 64 88 SW3 30.00S SAINT SIMONS CLEAR 72 67 84 S5 29.99F $$ SCZ027-028-034-036>038-045-046-048>050-GAZ119-141-300400- ...LAKE AND SUPPLEMENTAL COASTAL OBSERVATIONS... STATION/POSITION TIME TEMP WIND PRES WAVE SWELL AIR SEA DIR/SP/G HT/PER HT/PER/DIR (UTC) (F) (DEG/KT/KT) (MB) (FT/S) (FT/S/D) UPR LAKE MARION NOT AVBL WINYAH BAY 0300 71 250/ 4 1015.0R LAKE MURRAY 0300 71 290/ 5/ 10 1014.2F ACE BASIN NERRS 0300 68 CALM 1015.0S FORT PULASKI 0300 72 190/ 3/ 6 1015.7S SAPELO ISLAND NOT AVBL $$ ANZ835-935-AMZ111-154-330-350-352-354-374-450-454-472-300400- ...C-MAN AND BUOY OBSERVATIONS... STATION/POSITION TIME TEMP WIND PRES WAVE SWELL AIR SEA DIR/SP/G HT/PER HT/PER/DIR (UTC) (F) (DEG/KT/KT) (MB) (FT/S) (FT/S/D) FOLLY BEACH CMAN 0300 72 220/ 7/ 8 1015.5S BUOY 41004 0300 77 77 200/ 14/ 14 1014.7F 2/ 4 2/ 9 BUOY 41008 0300 75 74 180/ 10/ 12 1015.5F 1/ 5 5E ST. MARYS GA 0300 76 N/A 2/ 3 FRYING PAN BUOY 0300 75 74 220/ 14/ 16 1015.2F 3/ 4 BUOY 41025 0300 76 230/ 17/ 21 1013.8F 4/ 4 2/130/ 9 CAPE LOOKOUT NC 0300 72 230/ 7/ 10 1013.9F BUOY 41002 0155 75 76 210/ 6/ 6 1017.3 2/ 8 2/100/ 8 BUOY 41010 0300 78 81 50/ 6/ 8 1016.7F 2/ 6 2/100/ 6 BUOY 41012 NOT AVBL ST AUGUSTINE FL 0300 70 230/ 6/ 8 1016.8F CAPERS NEARSHORE 0200 73 210/ 10/ 12 N/A FRIPP NEARSHORE NOT AVBL $$

USA.gov is the U.S. government's official web portal to all federal, state and local government web resources and services.